| time (UTC) | temp F | wind direction | speed knots | gust knots | rain 1hr in | rain 24hr in | rain mn in | humidity % | barometer mb |
| 20260506134536 | 71 | 0 | 1.7 | 7.0 | 0.00 | 0.00 | 0.00 | 75 | 1013.4 |
| 20260506133037 | 71 | 196 | 0.9 | 8.7 | 0.00 | 0.00 | 0.00 | 75 | 1013.4 |
| 20260506131546 | 70 | 103 | 0.9 | 5.2 | 0.00 | 0.00 | 0.00 | 76 | 1013.3 |
| 20260506130043 | 70 | 207 | 1.7 | 5.2 | 0.00 | 0.00 | 0.00 | 77 | 1013.2 |
| 20260506124543 | 69 | 157 | 1.7 | 6.1 | 0.00 | 0.00 | 0.00 | 78 | 1013.2 |
| 20260506123040 | 68 | 144 | 0.9 | 5.2 | 0.00 | 0.00 | 0.00 | 79 | 1013.3 |
| 20260506121541 | 68 | 236 | 0.9 | 9.6 | 0.00 | 0.00 | 0.00 | 80 | 1013.6 |
| 20260506120055 | 67 | 97 | 0.9 | 6.1 | 0.00 | 0.00 | 0.00 | 80 | 1013.5 |
| 20260506114553 | 67 | 59 | 0.9 | 4.3 | 0.00 | 0.00 | 0.00 | 81 | 1013.5 |
| 20260506113044 | 66 | 64 | 0.0 | 7.0 | 0.00 | 0.00 | 0.00 | 82 | 1013.8 |
| 20260506111543 | 65 | 131 | 1.7 | 5.2 | 0.00 | 0.00 | 0.00 | 82 | 1013.6 |
| 20260506110054 | 64 | 0 | 0.9 | 4.3 | 0.00 | 0.00 | 0.00 | 83 | 1013.6 |
| 20260506104535 | 63 | 75 | 0.0 | 2.6 | 0.00 | 0.00 | 0.00 | 85 | 1013.3 |
| 20260506103044 | 62 | 236 | 0.0 | 1.7 | 0.00 | 0.00 | 0.00 | 85 | 1013.5 |
| 20260506101544 | 62 | 0 | 0.9 | 3.5 | 0.00 | 0.00 | 0.00 | 85 | 1013.5 |
| 20260506100045 | 62 | 0 | 0.0 | 3.5 | 0.00 | 0.00 | 0.00 | 84 | 1013.4 |
| 20260506094554 | 62 | 196 | 0.9 | 2.6 | 0.00 | 0.00 | 0.00 | 83 | 1013.0 |
| 20260506093036 | 62 | 80 | 1.7 | 5.2 | 0.00 | 0.00 | 0.00 | 83 | 1013.2 |
| 20260506091542 | 63 | 0 | 0.9 | 3.5 | 0.00 | 0.00 | 0.00 | 83 | 1013.5 |
| 20260506090042 | 63 | 0 | 0.9 | 4.3 | 0.00 | 0.00 | 0.00 | 82 | 1013.5 |
| 20260506084546 | 63 | 180 | 0.0 | 6.1 | 0.00 | 0.00 | 0.00 | 83 | 1013.6 |
| 20260506083041 | 62 | 146 | 0.9 | 3.5 | 0.00 | 0.00 | 0.00 | 84 | 1013.7 |
| 20260506081540 | 62 | 0 | 0.0 | 2.6 | 0.00 | 0.00 | 0.00 | 83 | 1013.8 |
| 20260506073051 | 62 | 101 | 0.9 | 2.6 | 0.00 | 0.00 | 0.00 | 83 | 1013.4 |
| 20260506071544 | 62 | 0 | 0.0 | 1.7 | 0.00 | 0.00 | 0.00 | 82 | 1013.6 |
| 20260506061544 | 63 | 120 | 0.0 | 1.7 | 0.00 | 0.00 | 0.00 | 81 | 1013.9 |
| 20260506044546 | 65 | 0 | 0.9 | 3.5 | 0.00 | 0.00 | 0.00 | 75 | 1014.7 |
| 20260506043039 | 65 | 162 | 0.0 | 2.6 | 0.00 | 0.00 | 0.00 | 75 | 1014.7 |
| 20260506041541 | 66 | 94 | 1.7 | 5.2 | 0.00 | 0.00 | 0.00 | 74 | 1014.9 |
| 20260506040058 | 66 | 88 | 0.9 | 6.1 | 0.00 | 0.00 | 0.00 | 73 | 1014.9 |
| 20260506034549 | 66 | 134 | 0.0 | 5.2 | 0.00 | 0.00 | 0.00 | 73 | 1014.7 |
| 20260506033042 | 67 | 5 | 0.9 | 3.5 | 0.00 | 0.00 | 0.00 | 73 | 1014.8 |
| 20260506031553 | 67 | 0 | 0.0 | 5.2 | 0.00 | 0.00 | 0.00 | 72 | 1014.8 |
| 20260506030045 | 67 | 130 | 1.7 | 6.1 | 0.00 | 0.00 | 0.00 | 71 | 1014.7 |
| 20260506024543 | 68 | 97 | 1.7 | 7.0 | 0.00 | 0.00 | 0.00 | 70 | 1014.6 |
| 20260506023044 | 68 | 360 | 1.7 | 5.2 | 0.00 | 0.00 | 0.00 | 70 | 1014.6 |
| 20260506021539 | 68 | 149 | 2.6 | 8.7 | 0.00 | 0.00 | 0.00 | 67 | 1014.6 |
| 20260506020034 | 69 | 196 | 0.9 | 7.8 | 0.00 | 0.00 | 0.00 | 69 | 1014.6 |
| 20260506014543 | 69 | 221 | 1.7 | 6.1 | 0.00 | 0.00 | 0.00 | 70 | 1014.4 |
| 20260506013045 | 70 | 78 | 1.7 | 4.3 | 0.00 | 0.00 | 0.00 | 69 | 1014.4 |
| 20260506011548 | 70 | 118 | 0.9 | 6.1 | 0.00 | 0.00 | 0.00 | 69 | 1014.1 |
| 20260506010042 | 70 | 130 | 1.7 | 8.7 | 0.00 | 0.00 | 0.00 | 67 | 1013.8 |
| 20260506004548 | 71 | 134 | 1.7 | 6.1 | 0.00 | 0.00 | 0.00 | 68 | 1013.7 |
| 20260506003042 | 72 | 124 | 1.7 | 6.1 | 0.00 | 0.00 | 0.00 | 66 | 1013.6 |
| 20260506001541 | 72 | 94 | 0.9 | 5.2 | 0.00 | 0.00 | 0.00 | 65 | 1013.5 |
| 20260506000039 | 73 | 40 | 2.6 | 8.7 | 0.00 | 0.00 | 0.00 | 62 | 1013.4 |
| 20260505234556 | 74 | 63 | 1.7 | 7.8 | 0.00 | 0.00 | 0.00 | 63 | 1013.2 |
| 20260505233044 | 74 | 68 | 1.7 | 7.0 | 0.00 | 0.00 | 0.00 | 62 | 1013.0 |
| 20260505231547 | 75 | 43 | 1.7 | 7.0 | 0.00 | 0.00 | 0.00 | 60 | 1013.0 |
| 20260505230040 | 76 | 95 | 1.7 | 5.2 | 0.00 | 0.00 | 0.00 | 60 | 1012.7 |
| 20260505224547 | 76 | 111 | 1.7 | 8.7 | 0.00 | 0.00 | 0.00 | 59 | 1012.8 |
| 20260505223051 | 77 | 9 | 3.5 | 7.0 | 0.00 | 0.00 | 0.00 | 57 | 1012.7 |
| 20260505221546 | 78 | 49 | 1.7 | 9.6 | 0.00 | 0.00 | 0.00 | 56 | 1012.7 |
| 20260505220042 | 78 | 112 | 4.3 | 9.6 | 0.00 | 0.00 | 0.00 | 53 | 1012.7 |
| 20260505214550 | 79 | 78 | 0.9 | 3.5 | 0.00 | 0.00 | 0.00 | 52 | 1012.7 |
| 20260505213046 | 79 | 218 | 0.9 | 5.2 | 0.00 | 0.00 | 0.00 | 50 | 1012.3 |
| 20260505211541 | 80 | 82 | 0.9 | 4.3 | 0.00 | 0.00 | 0.00 | 48 | 1012.4 |
| 20260505210042 | 80 | 150 | 1.7 | 6.1 | 0.00 | 0.00 | 0.00 | 48 | 1012.5 |
| 20260505204540 | 81 | 90 | 1.7 | 7.0 | 0.00 | 0.00 | 0.00 | 46 | 1012.4 |
| 20260505203037 | 81 | 211 | 1.7 | 10.4 | 0.00 | 0.00 | 0.00 | 45 | 1012.4 |
| 20260505201536 | 81 | 54 | 0.9 | 10.4 | 0.00 | 0.00 | 0.00 | 46 | 1012.7 |
| 20260505200041 | 81 | 77 | 2.6 | 7.0 | 0.00 | 0.00 | 0.00 | 46 | 1013.1 |
| 20260505194600 | 80 | 49 | 1.7 | 7.8 | 0.00 | 0.00 | 0.00 | 45 | 1013.4 |
| 20260505193044 | 80 | 218 | 1.7 | 7.0 | 0.00 | 0.00 | 0.00 | 47 | 1013.6 |
| 20260505191544 | 80 | 57 | 0.9 | 13.0 | 0.00 | 0.00 | 0.00 | 46 | 1013.9 |
| 20260505190040 | 79 | 18 | 1.7 | 7.8 | 0.00 | 0.00 | 0.00 | 49 | 1014.1 |
| 20260505184546 | 80 | 160 | 2.6 | 10.4 | 0.00 | 0.00 | 0.00 | 45 | 1014.3 |
| 20260505183044 | 79 | 101 | 1.7 | 8.7 | 0.00 | 0.00 | 0.00 | 47 | 1014.3 |
| 20260505181549 | 79 | 63 | 1.7 | 7.0 | 0.00 | 0.00 | 0.00 | 46 | 1014.4 |
| 20260505180044 | 78 | 117 | 2.6 | 7.0 | 0.00 | 0.00 | 0.00 | 45 | 1014.5 |
| 20260505174541 | 78 | 316 | 1.7 | 8.7 | 0.00 | 0.00 | 0.00 | 48 | 1014.5 |
| 20260505173046 | 78 | 121 | 3.5 | 9.6 | 0.00 | 0.00 | 0.00 | 48 | 1014.5 |
| 20260505171543 | 77 | 95 | 3.5 | 7.0 | 0.00 | 0.00 | 0.00 | 50 | 1014.8 |
| 20260505170040 | 77 | 170 | 2.6 | 6.1 | 0.00 | 0.00 | 0.00 | 49 | 1014.8 |
| 20260505164545 | 77 | 0 | 0.9 | 6.1 | 0.00 | 0.00 | 0.00 | 50 | 1015.2 |
| 20260505163048 | 77 | 98 | 1.7 | 9.6 | 0.00 | 0.00 | 0.00 | 52 | 1015.3 |
| 20260505161545 | 76 | 350 | 0.9 | 7.0 | 0.00 | 0.00 | 0.00 | 53 | 1015.3 |
| 20260505153041 | 74 | 360 | 1.7 | 7.0 | 0.00 | 0.00 | 0.00 | 57 | 1015.7 |
| 20260505151537 | 74 | 360 | 1.7 | 6.1 | 0.00 | 0.00 | 0.00 | 57 | 1015.6 |